[[{"header":{"parameterUnit":"m.s-1","parameterCategory":1,"la1":30.2991,"la2":30.254,"lo1":-89.0895,"lo2":-89.0444,"dy":0.0017,"dx":0.0017,"nx":28,"ny":28,"refTime":"2024-08-08T09:00:00:Z","depth":0,"parameterNumber":2,"parameterNumberName":"U-component_of_WINDS"},"data":[0,0,0,0,0,0,0,0,0,0,0,0,0,0,0,0,0,0,0,0,0,0,0,0,0,0,0,0,0,0,0,0,0,0,0,0,0,0,0,0,0,0,0,0,0,0,0,0,0,0,0,0,0,0,0,0,0,0,1.9872,1.9874,0,1.9974,1.9975,1.9976,2.0048,2.0049,2.0049,2.005,2.0153,2.0155,2.0158,0,0,0,0,0,0,0,0,0,0,0,0,0,1.9739,1.9741,1.9872,1.9874,1.9875,1.9974,1.9975,1.9977,2.0048,2.0049,2.0049,2.005,2.0153,2.0155,2.0158,0,0,0,0,0,0,0,0,0,0,0,0,0,1.9814,1.9742,1.9872,1.9922,1.9928,1.9974,1.9975,1.9977,2.0048,2.0049,2.0049,2.005,2.0152,2.0155,2.0158,2.0162,0,0,2.0168,2.017,0,0,0,0,0,0,0,0,1.981,1.9819,1.9914,1.9919,1.9925,1.9999,1.9966,2.0039,2.0047,2.0002,2.005,2.0051,2.0101,2.0109,2.0126,2.0167,2.0171,2.0169,2.0171,2.0172,2.0173,0,0,0,0,0,0,0,1.9805,1.9815,1.9913,1.9915,1.9922,1.994,1.9951,1.9981,2.0046,2.0006,2.0012,2.0023,2.0105,2.0123,2.0129,2.0173,2.0169,2.0172,2.0174,2.0175,2.0221,2.022,0,0,0,0,0,0,1.9792,1.981,1.9909,1.9916,1.9869,1.9941,1.9954,1.9975,2.0046,2.0057,2.0022,2.0026,2.0116,2.0125,2.0133,2.014,2.0172,2.0175,2.0177,2.0221,2.022,2.0219,0,0,0,0,0,0,1.9789,1.98,1.9905,1.9865,1.9879,1.9943,1.9965,1.9976,1.9994,2.0058,2.0069,2.0028,2.0117,2.0128,2.0154,2.0145,2.0177,2.018,2.0222,2.0221,2.022,2.0156,0,0,0,0,0,0,1.9784,1.9798,1.98,1.9864,1.9881,1.9924,1.9964,1.9978,2.0,2.0006,2.0067,2.0078,2.0119,2.0149,2.0157,2.015,2.0183,2.0223,2.0222,2.022,2.0159,2.0153,2.0147,0,0,0,0,0,1.9779,1.9779,1.98,1.9812,1.9885,1.9924,1.9934,1.9981,1.9999,2.0001,2.0042,2.0076,2.0145,2.0151,2.0161,2.0155,2.0224,2.0222,2.022,2.0162,2.0154,2.0148,0,0,0,0,0,0,1.9712,1.9788,1.9813,1.9833,1.9871,1.9936,1.994,1.9972,2.0006,2.001,2.0068,2.0081,2.0101,2.0131,2.0136,2.0162,2.0189,2.0189,2.0141,2.0134,2.0128,2.0119,2.0185,0,0,0,0,0,1.97,1.9725,1.979,1.9801,1.982,1.9876,1.9895,1.9929,1.9971,1.9987,2.003,2.007,2.01,2.0119,2.0151,2.0165,2.0178,2.0166,2.016,2.0155,2.0153,2.0161,2.0156,2.0214,2.0214,2.0214,0,0,1.9675,1.9719,1.9731,1.9789,1.9823,1.9847,1.989,1.9914,1.9932,1.9991,2.0017,2.005,2.0098,2.0117,2.0128,2.0143,2.0141,2.0153,2.0148,2.0149,2.0159,2.0153,2.0148,2.0212,2.0213,2.0213,0,0,1.964,1.9677,1.9689,1.9722,1.9773,1.9811,1.9814,1.9874,1.9897,1.9925,1.9969,1.9992,2.0045,2.0076,2.0099,2.0076,2.0108,2.0085,2.0053,2.006,2.0056,2.0052,2.0041,2.0037,2.0084,2.0084,2.0084,0,1.9601,1.9639,1.9692,1.9713,1.9736,1.9791,1.9804,1.9834,1.9892,1.9906,1.9923,1.9989,2.0025,2.0052,2.0046,2.0064,2.0068,2.0077,2.0052,2.0049,2.0046,2.0037,2.0033,2.0081,2.0081,2.0082,2.0082,0,1.9589,1.9614,1.9619,1.9673,1.9697,1.9714,1.9768,1.9787,1.9818,1.9854,1.9881,1.9927,1.9968,1.9977,2.0009,2.0008,2.0015,2.0041,2.0069,2.0036,2.0028,2.0026,2.0076,2.0078,2.0079,2.0079,0,0,1.9513,1.9596,1.9596,1.9621,1.9681,1.9702,1.9721,1.9761,1.9775,1.9814,1.983,1.9873,1.9897,1.9923,1.9959,1.9965,1.9941,1.9991,1.9993,1.9978,1.9941,1.9919,1.9914,1.9964,1.9964,1.9963,1.9936,0,1.9485,1.9522,1.9569,1.9589,1.9613,1.9666,1.9682,1.9721,1.9755,1.978,1.9818,1.9847,1.9878,1.9893,1.9902,1.9942,1.9934,1.9946,1.9978,1.9979,1.9961,1.991,1.9887,1.9859,1.9934,1.9933,1.9933,0,1.9457,1.9492,1.9514,1.9571,1.9583,1.9597,1.9637,1.9661,1.9705,1.973,1.9759,1.9797,1.9819,1.9846,1.9876,1.9883,1.9899,1.9921,1.9921,1.9924,1.9951,1.9909,1.9852,1.9846,1.9929,1.9929,1.993,0,1.9396,1.945,1.9469,1.9489,1.9557,1.9565,1.9594,1.9639,1.966,1.9695,1.9709,1.9747,1.9767,1.9795,1.9843,1.9858,1.9867,1.9899,1.9887,1.9885,1.9884,1.9883,1.9825,1.9899,1.9899,1.9899,1.9899,0,1.9359,1.9369,1.9442,1.9454,1.9468,1.9523,1.9534,1.9568,1.9608,1.9627,1.9676,1.9693,1.9756,1.978,1.9817,1.9835,1.9845,1.9864,1.9874,1.9858,1.9855,1.9867,1.9869,1.9898,1.9899,1.9899,1.9899,0,1.9291,1.9341,1.9365,1.9428,1.9444,1.945,1.9503,1.9517,1.9554,1.9577,1.9586,1.9645,1.9675,1.9726,1.9772,1.9797,1.9807,1.9825,1.9792,1.9797,1.9781,1.9781,1.9727,1.9722,1.9802,1.9801,1.98,0,1.9262,1.9272,1.9335,1.9351,1.9377,1.9403,1.9424,1.9479,1.9499,1.955,1.9557,1.9591,1.9622,1.9668,1.9715,1.975,1.9767,1.9746,1.9772,1.9755,1.9763,1.976,1.976,1.9738,1.9737,1.9736,1.9736,0,1.9205,1.9229,1.9258,1.9295,1.9319,1.9351,1.9385,1.9395,1.9458,1.9478,1.951,1.9533,1.958,1.9612,1.9654,1.9684,1.9719,1.9727,1.9726,1.9708,1.9687,1.9696,1.9772,1.9728,1.9728,1.9729,1.9729,1.973,1.9154,1.9164,1.9209,1.9239,1.9271,1.9302,1.9317,1.9356,1.9384,1.9425,1.9457,1.9485,1.953,1.9589,1.9616,1.964,1.9656,1.9654,1.9654,1.9651,1.9644,1.9686,1.9648,1.9648,1.9649,1.9649,1.9649,0,1.9096,1.9128,1.9156,1.9202,1.9225,1.9258,1.9298,1.9315,1.9339,1.9378,1.9406,1.9442,1.9474,1.9524,1.956,1.9568,1.9585,1.9576,1.9574,1.9579,1.9629,1.9625,1.9561,1.9561,1.9561,1.9561,1.9561,1.9561,1.9069,1.9086,1.9116,1.915,1.9182,1.921,1.923,1.9258,1.9289,1.9326,1.9353,1.9385,1.9428,1.9467,1.9498,1.9512,1.9521,1.9505,1.9524,1.9568,1.9576,1.9584,1.9581,1.9508,1.9508,1.9472,1.9472,1.9471]},{"header":{"parameterUnit":"m.s-1","parameterCategory":1,"la1":30.2991,"la2":30.254,"lo1":-89.0895,"lo2":-89.0444,"dy":0.0017,"dx":0.0017,"nx":28,"ny":28,"refTime":"2024-08-08T09:00:00:Z","depth":0,"parameterNumber":3,"parameterNumberName":"V-component_of_WINDS"},"data":[0,0,0,0,0,0,0,0,0,0,0,0,0,0,0,0,0,0,0,0,0,0,0,0,0,0,0,0,0,0,0,0,0,0,0,0,0,0,0,0,0,0,0,0,0,0,0,0,0,0,0,0,0,0,0,0,0,0,-2.3322,-2.3322,0,-2.3356,-2.3356,-2.3356,-2.3311,-2.331,-2.3308,-2.3306,-2.3339,-2.3342,-2.3344,0,0,0,0,0,0,0,0,0,0,0,0,0,-2.3216,-2.3218,-2.3322,-2.3322,-2.3323,-2.3355,-2.3356,-2.3356,-2.3311,-2.3309,-2.3308,-2.3306,-2.3339,-2.3341,-2.3344,0,0,0,0,0,0,0,0,0,0,0,0,0,-2.3257,-2.3219,-2.3322,-2.3304,-2.3303,-2.3355,-2.3356,-2.3357,-2.3312,-2.3309,-2.3307,-2.3305,-2.3338,-2.3341,-2.3345,-2.3415,0,0,-2.3356,-2.3357,0,0,0,0,0,0,0,0,-2.3255,-2.3261,-2.3306,-2.3305,-2.3304,-2.3327,-2.3331,-2.3376,-2.3312,-2.3308,-2.3306,-2.3304,-2.3337,-2.3341,-2.3352,-2.3417,-2.3418,-2.3356,-2.3358,-2.336,-2.3361,0,0,0,0,0,0,0,-2.3252,-2.3259,-2.3335,-2.3307,-2.3306,-2.3294,-2.3297,-2.3339,-2.3336,-2.3309,-2.3305,-2.331,-2.3336,-2.3349,-2.3353,-2.3419,-2.3356,-2.3359,-2.3361,-2.3363,-2.3542,-2.3544,0,0,0,0,0,0,-2.3251,-2.3257,-2.3334,-2.3336,-2.3273,-2.3298,-2.3301,-2.3322,-2.3335,-2.3335,-2.3312,-2.3308,-2.3344,-2.3348,-2.3354,-2.3436,-2.336,-2.3363,-2.3365,-2.3539,-2.3542,-2.3545,0,0,0,0,0,0,-2.3249,-2.3259,-2.3333,-2.3296,-2.3304,-2.3302,-2.3326,-2.3324,-2.3337,-2.3338,-2.3337,-2.3326,-2.3342,-2.3349,-2.34,-2.3437,-2.3365,-2.3368,-2.3536,-2.354,-2.3544,-2.3603,0,0,0,0,0,0,-2.3246,-2.3258,-2.3286,-2.3297,-2.3306,-2.338,-2.3328,-2.3326,-2.3343,-2.3338,-2.3351,-2.3351,-2.3341,-2.3395,-2.3404,-2.344,-2.3371,-2.3533,-2.3538,-2.3543,-2.3598,-2.3608,-2.3617,0,0,0,0,0,-2.3243,-2.3301,-2.3287,-2.3297,-2.3341,-2.3382,-2.3387,-2.3375,-2.3346,-2.3373,-2.3374,-2.335,-2.3432,-2.3401,-2.341,-2.3448,-2.353,-2.3536,-2.3542,-2.3593,-2.3606,-2.3617,0,0,0,0,0,0,-2.3294,-2.3302,-2.3287,-2.3351,-2.3366,-2.3374,-2.3408,-2.339,-2.3413,-2.3407,-2.3391,-2.3394,-2.3449,-2.3454,-2.3419,-2.3517,-2.3476,-2.3484,-2.3512,-2.3524,-2.3534,-2.3531,-2.3374,0,0,0,0,0,-2.3313,-2.3346,-2.3351,-2.3407,-2.3415,-2.3411,-2.3428,-2.3417,-2.3432,-2.3438,-2.3443,-2.3457,-2.3486,-2.3505,-2.3532,-2.3598,-2.36,-2.3629,-2.3639,-2.3647,-2.3654,-2.3688,-2.3701,-2.3564,-2.3564,-2.3564,0,0,-2.3352,-2.3361,-2.3383,-2.3417,-2.3428,-2.3462,-2.3416,-2.3454,-2.3479,-2.3444,-2.3493,-2.3496,-2.3512,-2.3571,-2.3597,-2.3576,-2.3692,-2.3654,-2.3661,-2.3664,-2.3695,-2.3708,-2.372,-2.3568,-2.3568,-2.3567,0,0,-2.3441,-2.3451,-2.3498,-2.3509,-2.3526,-2.3522,-2.3533,-2.3544,-2.3545,-2.3594,-2.3568,-2.3597,-2.3647,-2.3658,-2.3671,-2.3762,-2.3741,-2.3771,-2.3823,-2.3856,-2.3867,-2.3877,-2.3908,-2.392,-2.3778,-2.3779,-2.3779,0,-2.3487,-2.3538,-2.3524,-2.3564,-2.3579,-2.3549,-2.3596,-2.3607,-2.3632,-2.3642,-2.3619,-2.3681,-2.3689,-2.375,-2.3772,-2.3783,-2.3795,-2.377,-2.3867,-2.3876,-2.3885,-2.3915,-2.3927,-2.3782,-2.3782,-2.3781,-2.3781,0,-2.3594,-2.3629,-2.3665,-2.3689,-2.3708,-2.3752,-2.3743,-2.3765,-2.3752,-2.375,-2.38,-2.3808,-2.3836,-2.3849,-2.3837,-2.3908,-2.3895,-2.387,-2.3828,-2.3902,-2.3929,-2.3941,-2.3787,-2.3786,-2.3785,-2.3784,0,0,-2.3716,-2.3731,-2.3745,-2.3755,-2.377,-2.3797,-2.3838,-2.3865,-2.3883,-2.39,-2.3933,-2.3976,-2.3952,-2.3967,-2.3956,-2.3985,-2.4056,-2.3956,-2.3956,-2.3974,-2.4132,-2.4151,-2.4164,-2.4041,-2.4044,-2.4045,-2.4131,0,-2.3804,-2.3875,-2.3864,-2.3933,-2.3964,-2.3935,-2.3971,-2.3984,-2.3983,-2.4009,-2.4008,-2.4038,-2.4005,-2.4014,-2.4041,-2.4041,-2.4087,-2.4035,-2.4071,-2.4073,-2.4068,-2.4179,-2.4199,-2.4279,-2.4142,-2.4144,-2.4145,0,-2.3916,-2.3938,-2.401,-2.4019,-2.4032,-2.4064,-2.4087,-2.4113,-2.4126,-2.4123,-2.4139,-2.4122,-2.4161,-2.412,-2.4173,-2.4138,-2.4152,-2.4154,-2.4157,-2.416,-2.4113,-2.4184,-2.4305,-2.4317,-2.4162,-2.4161,-2.416,0,-2.3997,-2.4044,-2.4093,-2.4103,-2.4115,-2.4138,-2.4144,-2.4155,-2.4171,-2.4191,-2.4201,-2.4225,-2.4238,-2.4257,-2.4247,-2.4217,-2.4302,-2.426,-2.43,-2.43,-2.4319,-2.4318,-2.4443,-2.4329,-2.4329,-2.4329,-2.4328,0,-2.4096,-2.4141,-2.4129,-2.416,-2.4209,-2.4194,-2.4243,-2.4245,-2.4255,-2.4284,-2.426,-2.4288,-2.4273,-2.4299,-2.4291,-2.4337,-2.4343,-2.4341,-2.4338,-2.4343,-2.4343,-2.4352,-2.4346,-2.4332,-2.4331,-2.4331,-2.433,0,-2.4196,-2.4189,-2.4241,-2.4248,-2.425,-2.4286,-2.4291,-2.4319,-2.4316,-2.4353,-2.4361,-2.4356,-2.4386,-2.4377,-2.441,-2.4404,-2.4461,-2.4451,-2.4457,-2.4454,-2.4495,-2.4491,-2.463,-2.4647,-2.4522,-2.4523,-2.4524,0,-2.4259,-2.4293,-2.4303,-2.4321,-2.4329,-2.4358,-2.4375,-2.4361,-2.4379,-2.4396,-2.4421,-2.4449,-2.447,-2.4519,-2.4518,-2.4542,-2.4532,-2.4579,-2.4536,-2.4539,-2.4532,-2.453,-2.4533,-2.4588,-2.4589,-2.459,-2.4591,0,-2.4372,-2.4367,-2.4392,-2.4416,-2.4436,-2.4454,-2.447,-2.4486,-2.4473,-2.4494,-2.4524,-2.4541,-2.4573,-2.46,-2.4622,-2.4627,-2.4607,-2.4605,-2.4615,-2.462,-2.4622,-2.4621,-2.448,-2.4602,-2.4601,-2.46,-2.4599,-2.4599,-2.4455,-2.4483,-2.4495,-2.4523,-2.4533,-2.4548,-2.4574,-2.4574,-2.4599,-2.4624,-2.4614,-2.4649,-2.4659,-2.4686,-2.4694,-2.472,-2.4702,-2.4718,-2.4722,-2.4726,-2.473,-2.4618,-2.4724,-2.4724,-2.4724,-2.4723,-2.4723,0,-2.4566,-2.4572,-2.4598,-2.4621,-2.4642,-2.4621,-2.4637,-2.4657,-2.4687,-2.4699,-2.472,-2.4754,-2.478,-2.4781,-2.4805,-2.4825,-2.4817,-2.4832,-2.483,-2.4832,-2.4745,-2.4734,-2.4839,-2.4839,-2.4839,-2.4839,-2.4839,-2.4839,-2.4627,-2.4673,-2.467,-2.472,-2.4725,-2.4759,-2.4769,-2.4782,-2.4792,-2.4831,-2.4852,-2.4852,-2.4859,-2.4883,-2.4906,-2.4905,-2.4915,-2.4934,-2.493,-2.4849,-2.4838,-2.4827,-2.4816,-2.4936,-2.4936,-2.5014,-2.5014,-2.5015]}]]